226P/Pigott-LINEAR-Kowalski (2023)

Japanese version
Home page
Updated on August 27, 2023

---------------------------------------------------------------------

* Profile

* Pictures

* Orbital Elements

Epoch 2024 Jan. 11.0 TT = JDT 2460320.5
T 2023 Dec. 27.21863 TT                                 MPCW
q   1.7737543            (2000.0)            P               Q
n   0.13475416     Peri.  341.06984     +0.74451488     -0.35950592
a   3.7679742      Node    54.01182     +0.66621894     +0.34580210
e   0.5292552      Incl.   44.04599     +0.04301075     +0.86670433
P   7.31
From 253 observations 2003 Jan. 5-2016 Aug. 15, mean residual 0".7.
     Nongravitational parameters A1 = -0.35, A2 = +0.0138.

* Finding Charts

* Magnitudes Graph

        m1 = 7.0 + 5 log d + 30 log r(t - 15)

---------------------------------------------------------------------

The orbital elements are published on M.P.E.C. 2016-Q04.
The charts are made with StellaNavigator Ver.11 (AstroArts).
The magnitudes graphs are made with Comet for Windows.

---------------------------------------------------------------------

Copyright(C) Seiichi Yoshida (comet@aerith.net). All rights reserved.